STARLINK-1013

Last updated on Thu Dec 12 2019 00:02:03 GMT+0000 (Coordinated Universal Time)

1 44719U 19074G 19345.58335648 .00060110 00000-0 42954-3 0 9995 2 44719 53.0091 21.5002 0002046 21.7914 36.7432 15.73199587 4735

Satellite not in orbit